Location: Casone le Fosse
(44.6547°N, 12.1103°E)
Time: 11:52:52
(UTC+00:00)

Cosmos 2263 Rocket - Pass Details

Date: 29 October 2020
Orbit: 822 x 850 km, 71.0° (Epoch: 27 November)

Event Time Altitude Azimuth Distance (km) Brightness Sun altitude
Rises 18:38:25 0° 336° (NNW) 3,421 5.8 -27.9°
Reaches altitude 10° 18:40:54 10° 338° (NNW) 2,484 5.0 -28.3°
Enters shadow 18:45:10 50° 359° (N) 1,082 2.7 -29.1°
